• In Österreich
  • Länderverzeichnis
  • Für 7 Tage
  • Wassertemperatur
  • Satellitenkarten
  • Wetterkarte
  • News
  • Widgets
  • user-avatar
    Anmelden

    Stündliche Wetter Sivrihisar

    Heute, 19 November, Sonntag

    Zeit Temperatur Niederschläge Wind Luftdruck Luftfeuchtigkeit
    00:00 +8°C° 0 mm 2 m/S 662 mmHg 45%
    01:00 +7°C° 0 mm 2 m/S 662 mmHg 46%
    02:00 +8°C° 0 mm 2 m/S 662 mmHg 46%
    03:00 +7°C° 0 mm 2 m/S 662 mmHg 47%
    04:00 +7°C° 0 mm 2 m/S 661 mmHg 48%
    05:00 +7°C° 0 mm 1 m/S 661 mmHg 49%
    06:00 +8°C° 0 mm 1 m/S 661 mmHg 49%
    07:00 +8°C° 0 mm 1 m/S 661 mmHg 48%
    08:00 +9°C° 0 mm 1 m/S 662 mmHg 47%
    09:00 +11°C° 0 mm 1 m/S 662 mmHg 43%
    10:00 +12°C° 0 mm 2 m/S 662 mmHg 38%
    11:00 +14°C° 0 mm 2 m/S 662 mmHg 34%
    12:00 +14°C° 0 mm 2 m/S 662 mmHg 34%
    13:00 +14°C° 0 mm 3 m/S 662 mmHg 34%
    14:00 +14°C° 0 mm 3 m/S 662 mmHg 34%
    15:00 +13°C° 0 mm 3 m/S 662 mmHg 38%
    16:00 +13°C° 0 mm 2 m/S 661 mmHg 43%
    17:00 +12°C° 0 mm 2 m/S 661 mmHg 48%
    18:00 +10°C° 0 mm 2 m/S 661 mmHg 50%
    19:00 +10°C° 0 mm 2 m/S 661 mmHg 53%
    20:00 +9°C° 0 mm 2 m/S 661 mmHg 55%
    21:00 +9°C° 0 mm 2 m/S 661 mmHg 58%
    22:00 +8°C° 0 mm 2 m/S 661 mmHg 60%
    23:00 +8°C° 0 mm 2 m/S 661 mmHg 62%

    Morgen, 20 November, Montag

    Zeit Temperatur Niederschläge Wind Luftdruck Luftfeuchtigkeit
    00:00 +7°C° 0 mm 2 m/S 661 mmHg 64%
    01:00 +7°C° 0 mm 3 m/S 660 mmHg 66%
    02:00 +7°C° 0 mm 3 m/S 660 mmHg 68%
    03:00 +7°C° 0,1 mm 3 m/S 660 mmHg 71%
    04:00 +7°C° 0,1 mm 3 m/S 660 mmHg 73%
    05:00 +7°C° 0,1 mm 3 m/S 660 mmHg 76%
    06:00 +7°C° 0,4 mm 3 m/S 660 mmHg 77%
    07:00 +7°C° 0,4 mm 3 m/S 660 mmHg 78%
    08:00 +7°C° 0,4 mm 3 m/S 661 mmHg 79%
    09:00 +8°C° 0,4 mm 3 m/S 660 mmHg 72%
    10:00 +8°C° 0,4 mm 4 m/S 660 mmHg 65%
    11:00 +9°C° 0,4 mm 5 m/S 660 mmHg 59%
    12:00 +10°C° 0,5 mm 6 m/S 660 mmHg 56%
    13:00 +10°C° 0,5 mm 6 m/S 659 mmHg 53%
    14:00 +10°C° 0,5 mm 7 m/S 658 mmHg 50%
    15:00 +10°C° 0,5 mm 6 m/S 658 mmHg 54%
    16:00 +9°C° 0,5 mm 6 m/S 658 mmHg 58%
    17:00 +8°C° 0,5 mm 5 m/S 657 mmHg 61%
    18:00 +7°C° 0,5 mm 5 m/S 657 mmHg 65%
    19:00 +6°C° 0,5 mm 5 m/S 658 mmHg 68%
    20:00 +6°C° 0,5 mm 4 m/S 658 mmHg 71%
    21:00 +5°C° 0,1 mm 4 m/S 658 mmHg 72%
    22:00 +5°C° 0,1 mm 4 m/S 658 mmHg 74%
    23:00 +4°C° 0,1 mm 4 m/S 658 mmHg 75%

    übermorgen, 21 November, Dienstag

    Zeit Temperatur Niederschläge Wind Luftdruck Luftfeuchtigkeit
    00:00 +3°C° 0,2 mm 6 m/S 658 mmHg 75%
    01:00 +2°C° 0,2 mm 7 m/S 659 mmHg 75%
    02:00 0°C° 0,2 mm 8 m/S 659 mmHg 76%
    03:00 0°C° 0,2 mm 9 m/S 659 mmHg 74%
    04:00 0°C° 0,2 mm 9 m/S 659 mmHg 73%
    05:00 -2°C° 0,2 mm 10 m/S 660 mmHg 72%
    06:00 -2°C° 0,1 mm 10 m/S 660 mmHg 72%
    07:00 -1°C° 0,1 mm 9 m/S 661 mmHg 71%
    08:00 -1°C° 0,1 mm 9 m/S 662 mmHg 71%
    09:00 0°C° 0 mm 9 m/S 662 mmHg 68%
    10:00 0°C° 0 mm 10 m/S 663 mmHg 65%
    11:00 +1°C° 0 mm 10 m/S 663 mmHg 62%
    12:00 +1°C° 0,1 mm 9 m/S 663 mmHg 62%
    13:00 0°C° 0,1 mm 9 m/S 663 mmHg 62%
    14:00 0°C° 0,1 mm 8 m/S 664 mmHg 61%
    15:00 0°C° 0 mm 7 m/S 664 mmHg 64%
    16:00 -1°C° 0 mm 6 m/S 664 mmHg 66%
    17:00 0°C° 0 mm 4 m/S 665 mmHg 68%
    18:00 -1°C° 0 mm 4 m/S 665 mmHg 72%
    19:00 -1°C° 0 mm 3 m/S 665 mmHg 75%
    20:00 -1°C° 0 mm 3 m/S 665 mmHg 79%
    21:00 -1°C° 0 mm 3 m/S 665 mmHg 81%
    22:00 -2°C° 0 mm 2 m/S 665 mmHg 82%
    23:00 -2°C° 0 mm 2 m/S 665 mmHg 84%

    22 November, Mittwoch

    Zeit Temperatur Niederschläge Wind Luftdruck Luftfeuchtigkeit
    00:00 -2°C° 0 mm 2 m/S 665 mmHg 83%
    01:00 -3°C° 0 mm 2 m/S 665 mmHg 83%
    02:00 -3°C° 0 mm 2 m/S 665 mmHg 83%
    03:00 -1°C° 0 mm 1 m/S 665 mmHg 81%
    04:00 -1°C° 0 mm 1 m/S 665 mmHg 79%
    05:00 -1°C° 0 mm 1 m/S 665 mmHg 77%
    06:00 0°C° 0 mm 1 m/S 666 mmHg 72%
    07:00 0°C° 0 mm 1 m/S 666 mmHg 67%
    08:00 +1°C° 0 mm 1 m/S 666 mmHg 62%
    09:00 +1°C° 0 mm 2 m/S 667 mmHg 57%
    10:00 +2°C° 0 mm 2 m/S 667 mmHg 52%
    11:00 +4°C° 0 mm 2 m/S 667 mmHg 47%
    12:00 +5°C° 0 mm 2 m/S 667 mmHg 48%
    13:00 +4°C° 0 mm 3 m/S 667 mmHg 48%
    14:00 +5°C° 0 mm 3 m/S 667 mmHg 48%
    15:00 +4°C° 0 mm 3 m/S 667 mmHg 54%
    16:00 +4°C° 0 mm 2 m/S 667 mmHg 59%
    17:00 +4°C° 0 mm 2 m/S 667 mmHg 64%
    18:00 +3°C° 0 mm 2 m/S 667 mmHg 66%
    19:00 +3°C° 0 mm 2 m/S 667 mmHg 68%
    20:00 +2°C° 0 mm 2 m/S 667 mmHg 70%
    21:00 +2°C° 0 mm 2 m/S 668 mmHg 72%
    22:00 +2°C° 0 mm 2 m/S 668 mmHg 74%
    23:00 +2°C° 0 mm 2 m/S 668 mmHg 76%

    23 November, Donnerstag

    Zeit Temperatur Niederschläge Wind Luftdruck Luftfeuchtigkeit
    00:00 +1°C° 0 mm 2 m/S 668 mmHg 77%
    01:00 +1°C° 0 mm 2 m/S 668 mmHg 79%
    02:00 +1°C° 0 mm 2 m/S 668 mmHg 80%
    03:00 +2°C° 0 mm 1 m/S 668 mmHg 81%
    04:00 +2°C° 0 mm 1 m/S 668 mmHg 83%
    05:00 +1°C° 0 mm 1 m/S 668 mmHg 84%
    06:00 +2°C° 0 mm 1 m/S 668 mmHg 81%
    07:00 +2°C° 0 mm 1 m/S 669 mmHg 79%
    08:00 +3°C° 0 mm 1 m/S 669 mmHg 77%
    09:00 +4°C° 0 mm 1 m/S 669 mmHg 71%
    10:00 +6°C° 0 mm 1 m/S 669 mmHg 66%
    11:00 +7°C° 0 mm 1 m/S 670 mmHg 61%
    12:00 +8°C° 0 mm 1 m/S 670 mmHg 58%
    13:00 +8°C° 0 mm 1 m/S 669 mmHg 56%
    14:00 +9°C° 0 mm 1 m/S 669 mmHg 54%
    15:00 +8°C° 0 mm 1 m/S 669 mmHg 59%
    16:00 +7°C° 0 mm 1 m/S 669 mmHg 64%
    17:00 +6°C° 0 mm 1 m/S 669 mmHg 69%
    18:00 +5°C° 0 mm 1 m/S 669 mmHg 71%
    19:00 +5°C° 0 mm 1 m/S 669 mmHg 73%
    20:00 +3°C° 0 mm 0 m/S 670 mmHg 76%
    21:00 +3°C° 0 mm 0 m/S 670 mmHg 77%
    22:00 +3°C° 0 mm 0 m/S 670 mmHg 79%
    23:00 +3°C° 0 mm 0 m/S 670 mmHg 81%

    24 November, Freitag

    Zeit Temperatur Niederschläge Wind Luftdruck Luftfeuchtigkeit
    00:00 +2°C° 0 mm 0 m/S 670 mmHg 82%
    01:00 +2°C° 0 mm 0 m/S 670 mmHg 84%
    02:00 +2°C° 0 mm 0 m/S 670 mmHg 85%
    03:00 +1°C° 0 mm 0 m/S 670 mmHg 86%
    04:00 +1°C° 0 mm 0 m/S 670 mmHg 87%
    05:00 +1°C° 0 mm 0 m/S 670 mmHg 88%
    06:00 +1°C° 0 mm 0 m/S 670 mmHg 85%
    07:00 +2°C° 0 mm 0 m/S 671 mmHg 83%
    08:00 +3°C° 0 mm 0 m/S 671 mmHg 80%
    09:00 +4°C° 0 mm 0 m/S 671 mmHg 73%
    10:00 +7°C° 0 mm 1 m/S 671 mmHg 66%
    11:00 +8°C° 0 mm 1 m/S 671 mmHg 59%
    12:00 +9°C° 0 mm 1 m/S 671 mmHg 57%
    13:00 +9°C° 0 mm 1 m/S 671 mmHg 54%
    14:00 +10°C° 0 mm 1 m/S 671 mmHg 51%
    15:00 +9°C° 0 mm 1 m/S 670 mmHg 56%
    16:00 +8°C° 0 mm 1 m/S 670 mmHg 60%
    17:00 +7°C° 0 mm 1 m/S 670 mmHg 65%
    18:00 +6°C° 0 mm 1 m/S 670 mmHg 66%
    19:00 +6°C° 0 mm 1 m/S 670 mmHg 68%
    20:00 +5°C° 0 mm 1 m/S 671 mmHg 69%
    21:00 +5°C° 0 mm 1 m/S 671 mmHg 70%
    22:00 +4°C° 0 mm 1 m/S 671 mmHg 72%
    23:00 +4°C° 0 mm 1 m/S 671 mmHg 73%
    Mehr zeigen